[[{"header":{"parameterUnit":"m.s-1","parameterCategory":1,"la1":30.2991,"la2":30.254,"lo1":-89.0895,"lo2":-89.0444,"dx":0.0017,"dy":0.0017,"nx":28,"ny":28,"refTime":"2022-11-26T09:00:00:Z","depth":0,"parameterNumber":2,"parameterNumberName":"U-component_of_WINDS"},"data":[0,0,0,0,0,0,0,0,0,0,0,0,0,0,0,0,0,0,0,0,0,0,0,0,0,0,0,0,0,0,0,0,0,0,0,0,0,0,0,0,0,0,0,0,0,0,0,0,0,0,0,0,0,0,0,0,0,0,0.6594,0.6595,0,0.6704,0.6706,0.6707,0.6736,0.6735,0.6735,0.6734,0.6852,0.6856,0.6859,0,0,0,0,0,0,0,0,0,0,0,0,0,0.6412,0.6416,0.6594,0.6595,0.6596,0.6704,0.6706,0.6707,0.6736,0.6735,0.6735,0.6734,0.6851,0.6855,0.686,0,0,0,0,0,0,0,0,0,0,0,0,0,0.6504,0.6417,0.6593,0.6624,0.6628,0.6704,0.6706,0.6708,0.6736,0.6735,0.6734,0.6733,0.6849,0.6855,0.686,0.6916,0,0,0.6878,0.688,0,0,0,0,0,0,0,0,0.6499,0.6511,0.6618,0.6622,0.6626,0.6705,0.6685,0.6778,0.6737,0.6695,0.6734,0.6733,0.6804,0.6814,0.6837,0.6921,0.6926,0.6878,0.6882,0.6884,0.6886,0,0,0,0,0,0,0,0.6492,0.6506,0.6638,0.662,0.6625,0.6633,0.6645,0.6703,0.6754,0.6699,0.6701,0.6714,0.6806,0.6831,0.684,0.6928,0.6878,0.6883,0.6887,0.6889,0.7065,0.7066,0,0,0,0,0,0,0.648,0.65,0.6634,0.6641,0.6558,0.6638,0.6651,0.6681,0.6754,0.6764,0.6714,0.6715,0.6822,0.6833,0.6844,0.6915,0.6884,0.6889,0.6893,0.7064,0.7065,0.7067,0,0,0,0,0,0,0.6476,0.6492,0.663,0.6571,0.659,0.6642,0.6675,0.6684,0.6709,0.6765,0.6775,0.673,0.6822,0.6836,0.6898,0.6919,0.6892,0.6897,0.7062,0.7064,0.7066,0.7055,0,0,0,0,0,0,0.6471,0.649,0.651,0.6572,0.6593,0.668,0.6677,0.6687,0.6718,0.6719,0.6783,0.6792,0.6822,0.6889,0.6903,0.6926,0.6901,0.7061,0.7063,0.7066,0.7054,0.7057,0.7059,0,0,0,0,0,0.6464,0.6504,0.6511,0.6527,0.6619,0.6681,0.6693,0.6725,0.6719,0.6741,0.6778,0.679,0.6914,0.6895,0.6911,0.6936,0.706,0.7063,0.7065,0.7053,0.7056,0.7059,0,0,0,0,0,0,0.6445,0.6512,0.6521,0.6582,0.6625,0.6686,0.6714,0.6728,0.6775,0.6774,0.6814,0.6828,0.6887,0.6918,0.6896,0.6995,0.6987,0.6993,0.6972,0.6976,0.6978,0.697,0.6906,0,0,0,0,0,0.6448,0.6491,0.6548,0.6596,0.6617,0.6662,0.669,0.6711,0.6758,0.6777,0.6819,0.6865,0.6915,0.6947,0.6996,0.7059,0.7074,0.7084,0.7086,0.7088,0.7093,0.713,0.7136,0.7076,0.7076,0.7076,0,0,0.6454,0.6496,0.6521,0.6593,0.6629,0.6675,0.6677,0.6725,0.676,0.6785,0.6846,0.6878,0.6933,0.6995,0.7025,0.7023,0.7113,0.7092,0.7093,0.7097,0.7134,0.714,0.7145,0.7078,0.7078,0.7078,0,0,0.6489,0.6524,0.6569,0.6605,0.6659,0.6688,0.6699,0.6758,0.6779,0.684,0.6861,0.6903,0.6988,0.7026,0.7057,0.7107,0.7121,0.7122,0.7135,0.7171,0.7175,0.718,0.7199,0.7205,0.7127,0.7127,0.7127,0,0.6491,0.6558,0.659,0.6637,0.6669,0.6692,0.6738,0.6772,0.684,0.6862,0.6858,0.6965,0.7004,0.7076,0.7089,0.7112,0.7127,0.7115,0.7172,0.7177,0.7181,0.72,0.7207,0.7127,0.7127,0.7127,0.7127,0,0.6558,0.6605,0.6634,0.6698,0.6733,0.6779,0.6819,0.6851,0.6869,0.69,0.6962,0.701,0.7069,0.7087,0.7106,0.7163,0.716,0.7164,0.7157,0.7186,0.7205,0.7212,0.7126,0.7127,0.7127,0.7127,0,0,0.6585,0.6665,0.6675,0.6705,0.6767,0.6804,0.6852,0.6909,0.6936,0.6982,0.7025,0.7096,0.7099,0.7134,0.7157,0.7188,0.7227,0.7188,0.719,0.7195,0.7295,0.7292,0.73,0.7236,0.7237,0.7238,0.729,0,0.6628,0.6713,0.6743,0.6814,0.6858,0.6881,0.6923,0.6967,0.6997,0.704,0.7074,0.7124,0.7124,0.7146,0.7177,0.7215,0.7247,0.7212,0.7278,0.728,0.7264,0.7309,0.7307,0.7354,0.7298,0.7299,0.73,0,0.669,0.6736,0.681,0.6867,0.6887,0.6924,0.6979,0.7019,0.707,0.709,0.7128,0.715,0.7203,0.7192,0.7267,0.7242,0.7271,0.7294,0.7296,0.7305,0.7292,0.732,0.737,0.7377,0.7311,0.731,0.7309,0,0.6703,0.6783,0.6839,0.6863,0.6931,0.6956,0.6986,0.7035,0.7068,0.7116,0.7138,0.7192,0.7222,0.7265,0.7301,0.7289,0.7373,0.7365,0.7393,0.7392,0.741,0.7409,0.7466,0.7426,0.7426,0.7426,0.7426,0,0.6749,0.6794,0.6846,0.688,0.6932,0.6966,0.7017,0.7049,0.7092,0.7134,0.7158,0.7198,0.7242,0.7288,0.7316,0.7375,0.7388,0.7407,0.7415,0.7406,0.7404,0.7426,0.7425,0.7428,0.7428,0.7427,0.7427,0,0.6773,0.6809,0.6871,0.6929,0.6945,0.6981,0.7032,0.7067,0.7098,0.7151,0.7165,0.7214,0.7269,0.7309,0.7381,0.74,0.7464,0.747,0.7446,0.745,0.7476,0.7473,0.7551,0.7563,0.7514,0.7514,0.7514,0,0.68,0.6835,0.6897,0.6926,0.6955,0.7002,0.7035,0.7071,0.7104,0.7165,0.7193,0.7249,0.7296,0.7384,0.7427,0.7483,0.7492,0.7515,0.75,0.7491,0.7494,0.7492,0.7497,0.7517,0.7518,0.7518,0.7518,0,0.6845,0.6861,0.6907,0.6959,0.6997,0.704,0.7084,0.7107,0.7151,0.7188,0.7243,0.728,0.7353,0.7409,0.7469,0.7502,0.7518,0.7522,0.7532,0.7524,0.7509,0.7519,0.7453,0.7521,0.7521,0.752,0.752,0.752,0.6873,0.6905,0.6954,0.7005,0.7041,0.7081,0.7117,0.7152,0.7198,0.7259,0.7278,0.7337,0.7388,0.7469,0.7503,0.755,0.755,0.7563,0.7567,0.757,0.757,0.75,0.7561,0.7561,0.7561,0.7561,0.7561,0,0.6921,0.6953,0.6998,0.7058,0.7098,0.7108,0.7157,0.7191,0.7241,0.7286,0.7332,0.7397,0.7452,0.75,0.7557,0.7587,0.7596,0.7601,0.76,0.7608,0.7567,0.7554,0.7592,0.7592,0.7592,0.7592,0.7592,0.7592,0.695,0.7006,0.7028,0.7103,0.7136,0.7192,0.7219,0.7258,0.7294,0.7365,0.741,0.744,0.7487,0.7548,0.76,0.7613,0.7634,0.7637,0.7652,0.7614,0.761,0.7607,0.7594,0.7641,0.7641,0.7689,0.7689,0.769]},{"header":{"parameterUnit":"m.s-1","parameterCategory":1,"la1":30.2991,"la2":30.254,"lo1":-89.0895,"lo2":-89.0444,"dx":0.0017,"dy":0.0017,"nx":28,"ny":28,"refTime":"2022-11-26T09:00:00:Z","depth":0,"parameterNumber":3,"parameterNumberName":"V-component_of_WINDS"},"data":[0,0,0,0,0,0,0,0,0,0,0,0,0,0,0,0,0,0,0,0,0,0,0,0,0,0,0,0,0,0,0,0,0,0,0,0,0,0,0,0,0,0,0,0,0,0,0,0,0,0,0,0,0,0,0,0,0,0,2.466,2.466,0,2.4717,2.4718,2.4719,2.4688,2.4687,2.4685,2.4684,2.4742,2.4745,2.4748,0,0,0,0,0,0,0,0,0,0,0,0,0,2.4522,2.4525,2.4659,2.466,2.4661,2.4717,2.4718,2.4719,2.4689,2.4687,2.4685,2.4683,2.4741,2.4744,2.4748,0,0,0,0,0,0,0,0,0,0,0,0,0,2.4581,2.4526,2.4659,2.4653,2.4653,2.4717,2.4718,2.4719,2.4689,2.4687,2.4684,2.4682,2.474,2.4744,2.4748,2.4822,0,0,2.4762,2.4764,0,0,0,0,0,0,0,0,2.4578,2.4586,2.4653,2.4653,2.4653,2.4693,2.4691,2.4754,2.469,2.4675,2.4684,2.4681,2.4727,2.4733,2.4749,2.4825,2.4828,2.4762,2.4765,2.4767,2.4768,0,0,0,0,0,0,0,2.4574,2.4584,2.4682,2.4654,2.4654,2.4647,2.4652,2.4703,2.4714,2.4676,2.4674,2.4681,2.4727,2.4744,2.475,2.4828,2.4762,2.4766,2.4769,2.4771,2.497,2.4972,0,0,0,0,0,0,2.457,2.458,2.468,2.4684,2.4609,2.4651,2.4657,2.4683,2.4713,2.4715,2.4683,2.468,2.4738,2.4745,2.4752,2.4842,2.4767,2.4771,2.4774,2.4967,2.497,2.4973,0,0,0,0,0,0,2.4567,2.4579,2.4678,2.4632,2.4644,2.4656,2.4684,2.4685,2.4702,2.4718,2.472,2.4699,2.4736,2.4745,2.4805,2.4843,2.4773,2.4777,2.4964,2.4968,2.4972,2.5021,0,0,0,0,0,0,2.4564,2.4579,2.4607,2.4633,2.4646,2.4731,2.4687,2.4688,2.471,2.4706,2.4734,2.4736,2.4735,2.4799,2.481,2.4848,2.4781,2.4961,2.4966,2.4971,2.5016,2.5026,2.5035,0,0,0,0,0,2.4559,2.4618,2.4609,2.4621,2.4682,2.4733,2.4741,2.474,2.4714,2.4742,2.4753,2.4735,2.4837,2.4805,2.4817,2.4857,2.4958,2.4964,2.497,2.5012,2.5024,2.5034,0,0,0,0,0,0,2.4596,2.4621,2.4611,2.468,2.4705,2.4728,2.4764,2.4752,2.4785,2.478,2.4776,2.4782,2.4845,2.4857,2.4821,2.4931,2.4894,2.4902,2.4921,2.4933,2.4942,2.4938,2.4785,0,0,0,0,0,2.4612,2.4652,2.4672,2.4731,2.4744,2.4752,2.4774,2.4771,2.4796,2.4807,2.4821,2.4846,2.4884,2.4909,2.4944,2.5017,2.5023,2.5051,2.506,2.5068,2.5075,2.5116,2.5129,2.4992,2.4992,2.4992,0,0,2.4646,2.4665,2.469,2.4739,2.4758,2.4799,2.4761,2.4806,2.4837,2.4813,2.4872,2.4883,2.4911,2.4978,2.5008,2.499,2.5114,2.5075,2.5081,2.5085,2.5123,2.5136,2.5148,2.4996,2.4996,2.4995,0,0,2.473,2.4748,2.48,2.4819,2.4849,2.4854,2.4866,2.4891,2.4899,2.4957,2.494,2.4976,2.5041,2.5062,2.5081,2.5173,2.5159,2.5185,2.5234,2.5273,2.5284,2.5294,2.5328,2.534,2.5192,2.5192,2.5192,0,2.4768,2.4831,2.4828,2.4875,2.4897,2.4878,2.4931,2.495,2.4989,2.5005,2.4983,2.5065,2.5082,2.5155,2.5178,2.5193,2.5208,2.5182,2.5283,2.5292,2.5301,2.5334,2.5346,2.5195,2.5195,2.5195,2.5194,0,2.4877,2.492,2.4959,2.4998,2.5024,2.5074,2.5079,2.5106,2.51,2.5108,2.5168,2.5188,2.5227,2.5244,2.5239,2.5316,2.5304,2.5283,2.5245,2.5317,2.5348,2.536,2.52,2.5199,2.5198,2.5197,0,0,2.4986,2.5023,2.5038,2.5056,2.5087,2.512,2.5169,2.5208,2.5232,2.526,2.5301,2.5357,2.5338,2.536,2.5356,2.5391,2.5464,2.5366,2.5366,2.5385,2.5552,2.5569,2.5584,2.5455,2.5457,2.5459,2.5551,0,2.5072,2.5159,2.5158,2.5238,2.5278,2.5261,2.5303,2.5327,2.5335,2.5371,2.5379,2.542,2.5391,2.5404,2.5438,2.5448,2.5498,2.5442,2.5494,2.5496,2.5489,2.5599,2.5617,2.5703,2.5562,2.5564,2.5566,0,2.5185,2.5217,2.5302,2.5328,2.5345,2.5383,2.542,2.5454,2.5481,2.5484,2.5509,2.55,2.555,2.5511,2.558,2.5541,2.5563,2.5571,2.5574,2.558,2.5536,2.5609,2.573,2.5743,2.5584,2.5583,2.5582,0,2.5258,2.5322,2.5381,2.5397,2.5428,2.5456,2.547,2.5495,2.5519,2.5551,2.5567,2.5604,2.5624,2.5653,2.5655,2.5626,2.5725,2.5685,2.573,2.573,2.5753,2.5752,2.588,2.5764,2.5764,2.5764,2.5764,0,2.5355,2.5408,2.5414,2.5451,2.5509,2.5508,2.5566,2.5577,2.5599,2.5638,2.5624,2.5661,2.566,2.5698,2.5699,2.5757,2.5766,2.5771,2.5771,2.5773,2.5772,2.5787,2.5782,2.5767,2.5766,2.5766,2.5765,0,2.5447,2.5453,2.5517,2.5541,2.5549,2.5591,2.5612,2.5647,2.5654,2.5703,2.5715,2.5726,2.5769,2.5774,2.5823,2.5825,2.5895,2.5888,2.5886,2.5886,2.5931,2.5927,2.6074,2.6094,2.5964,2.5966,2.5967,0,2.5509,2.5549,2.5579,2.5604,2.562,2.5661,2.5686,2.5685,2.5712,2.5746,2.5777,2.5819,2.5852,2.5922,2.5935,2.5973,2.5968,2.6017,2.5973,2.5975,2.597,2.5968,2.5973,2.6025,2.6027,2.6028,2.6029,0,2.562,2.5621,2.5658,2.5696,2.5726,2.5756,2.5784,2.5805,2.5809,2.5839,2.5884,2.591,2.5961,2.6004,2.6041,2.6056,2.6044,2.6042,2.6055,2.6058,2.6056,2.606,2.5911,2.6039,2.6038,2.6037,2.6037,2.6036,2.57,2.5735,2.5762,2.5803,2.5825,2.5851,2.5886,2.5897,2.5935,2.5977,2.5974,2.6024,2.605,2.61,2.6117,2.6156,2.614,2.6158,2.6162,2.6167,2.6173,2.6049,2.6162,2.6162,2.6162,2.6162,2.6161,0,2.5811,2.5827,2.5866,2.5906,2.5939,2.5924,2.5954,2.5983,2.6027,2.6052,2.6086,2.6138,2.6179,2.6195,2.6235,2.6263,2.6258,2.6273,2.6272,2.6276,2.6184,2.617,2.6277,2.6277,2.6277,2.6277,2.6277,2.6277,2.5873,2.5933,2.5937,2.6007,2.6023,2.6072,2.6091,2.6116,2.6136,2.6195,2.6229,2.6239,2.6262,2.6303,2.6341,2.6344,2.636,2.6378,2.638,2.6294,2.6282,2.6271,2.6258,2.6381,2.6382,2.6469,2.6469,2.647]}]]